Weather History for Sheldon, IA

Change the Weather History Date:

Monday, January 9, 2012

  Actual Average Record
Temperature  
Mean Temperature 37 °F -  
Max Temperature 50 °F 19 °F 55 °F (1958)
Min Temperature 24 °F 1 °F -28 °F (1974)
Degree Days  
Heating Degree Days 28    
Moisture  
Dew Point 26 °F    
Average Humidity 71    
Maximum Humidity 93    
Minimum Humidity 43    
Precipitation  
Precipitation 0.00 in - - ()
Sea Level Pressure  
Sea Level Pressure 30.05 in    
Wind  
Wind Speed 10 mph (WSW)    
Max Wind Speed 15 mph    
Max Gust Speed 17 mph    
Visibility 10 miles    
Events      
Averages and records for this station are not official NWS values.
T = Trace of Precipitation, MM = Missing Value Source: NWS Daily Summary

Daily Weather History Graph

Daily Weather History Graph

Search for Another Location

Airport:

Trip Planner

Search our weather history database for the weather conditions in past years. The results will help you decide how hot, cold, wet, or windy it might be!

Date:

Astronomy

Jan. 09, 2012 Rise Set
Actual Time 7:54 AM CST 5:06 PM CST
Civil Twilight 7:22 AM CST 5:38 PM CST
Nautical Twilight 6:47 AM CST 6:13 PM CST
Astronomical Twilight 6:12 AM CST 6:48 PM CST
Moon 5:55 PM CST (1/9) 7:54 AM CST (1/9)
Length of Visible Light 10h 15m
Length of Day
9h 11m
Full, 100% of the Moon is Illuminated
Jan 9
Full
Jan 16
Last Quarter
Jan 23
New
Jan 30
First Quarter
Feb 7
Full

Hourly Weather History & Observations

Time (CST) Temp. Windchill Dew Point Humidity Pressure Visibility Wind Dir Wind Speed Gust Speed Precip Events Conditions
12:15 AM 30.2 °F 21.3 °F 24.8 °F 80% 30.15 in 10.0 mi SW 10.4 mph - N/A   Clear
12:35 AM 30.2 °F 20.8 °F 24.8 °F 80% 30.13 in 10.0 mi SW 11.5 mph - N/A   Clear
12:55 AM 30.2 °F 21.3 °F 26.6 °F 86% 30.12 in 10.0 mi SW 10.4 mph 16.1 mph N/A   Clear
1:15 AM 28.4 °F 19.7 °F 24.8 °F 86% 30.12 in 10.0 mi SW 9.2 mph - N/A   Clear
1:35 AM 28.4 °F 19.7 °F 24.8 °F 86% 30.12 in 10.0 mi SW 9.2 mph - N/A   Clear
1:55 AM 28.4 °F 19.7 °F 24.8 °F 86% 30.11 in 10.0 mi SW 9.2 mph - N/A   Clear
2:15 AM 28.4 °F 19.7 °F 24.8 °F 86% 30.11 in 10.0 mi SW 9.2 mph - N/A   Clear
2:35 AM 26.6 °F 16.8 °F 24.8 °F 93% 30.10 in 10.0 mi SW 10.4 mph - N/A   Clear
2:55 AM 26.6 °F 17.5 °F 24.8 °F 93% 30.10 in 10.0 mi SW 9.2 mph - N/A   Clear
3:15 AM 26.6 °F 16.8 °F 24.8 °F 93% 30.10 in 10.0 mi SW 10.4 mph - N/A   Clear
3:35 AM 26.6 °F 16.8 °F 24.8 °F 93% 30.09 in 10.0 mi SW 10.4 mph - N/A   Clear
3:55 AM 26.6 °F 17.5 °F 24.8 °F 93% 30.08 in 10.0 mi SW 9.2 mph - N/A   Clear
4:15 AM 26.6 °F 16.8 °F 24.8 °F 93% 30.07 in 10.0 mi SW 10.4 mph - N/A   Clear
4:35 AM 26.6 °F 16.2 °F 24.8 °F 93% 30.06 in 10.0 mi SW 11.5 mph - N/A   Clear
4:55 AM 26.6 °F 15.7 °F 24.8 °F 93% 30.06 in 10.0 mi SW 12.7 mph - N/A   Clear
5:15 AM 26.6 °F 16.2 °F 23.0 °F 86% 30.06 in 10.0 mi SW 11.5 mph - N/A   Clear
5:35 AM 26.6 °F 16.2 °F 23.0 °F 86% 30.05 in 10.0 mi SW 11.5 mph 17.3 mph N/A   Clear
5:55 AM 26.6 °F 15.7 °F 23.0 °F 86% 30.05 in 10.0 mi SW 12.7 mph - N/A   Clear
6:15 AM 26.6 °F 16.8 °F 23.0 °F 86% 30.05 in 10.0 mi SW 10.4 mph - N/A   Clear
6:35 AM 26.6 °F 16.8 °F 23.0 °F 86% 30.05 in 10.0 mi SW 10.4 mph - N/A   Clear
6:55 AM 26.6 °F 17.5 °F 23.0 °F 86% 30.05 in 10.0 mi SW 9.2 mph - N/A   Clear
7:15 AM 24.8 °F 16.1 °F 21.2 °F 86% 30.05 in 10.0 mi WSW 8.1 mph - N/A   Clear
7:35 AM 24.8 °F 16.9 °F 21.2 °F 86% 30.06 in 10.0 mi WSW 6.9 mph - N/A   Clear
7:55 AM 24.8 °F 15.3 °F 21.2 °F 86% 30.05 in 10.0 mi WSW 9.2 mph - N/A   Clear
8:15 AM 24.8 °F 16.9 °F 21.2 °F 86% 30.06 in 10.0 mi WSW 6.9 mph - N/A   Clear
8:35 AM 26.6 °F 20.0 °F 23.0 °F 86% 30.05 in 10.0 mi WSW 5.8 mph - N/A   Clear
8:55 AM 28.4 °F 20.4 °F 24.8 °F 86% 30.06 in 10.0 mi WSW 8.1 mph - N/A   Clear
9:15 AM 30.2 °F 22.6 °F 24.8 °F 80% 30.06 in 10.0 mi WSW 8.1 mph - N/A   Clear
9:35 AM 32.0 °F 24.2 °F 26.6 °F 80% 30.06 in 10.0 mi West 9.2 mph - N/A   Clear
10:15 AM 35.6 °F 27.5 °F 26.6 °F 70% 30.06 in 10.0 mi West 11.5 mph - N/A   Clear
10:35 AM 37.4 °F 29.3 °F 26.6 °F 65% 30.06 in 10.0 mi West 12.7 mph - N/A   Clear
10:55 AM 37.4 °F 28.9 °F 26.6 °F 65% 30.06 in 10.0 mi West 13.8 mph - N/A   Clear
11:15 AM 39.2 °F 31.6 °F 26.6 °F 61% 30.06 in 10.0 mi West 12.7 mph - N/A   Clear
11:35 AM 39.2 °F 32.0 °F 26.6 °F 61% 30.04 in 10.0 mi West 11.5 mph - N/A   Clear
11:55 AM 42.8 °F 36.2 °F 26.6 °F 53% 30.04 in 10.0 mi West 12.7 mph - N/A   Clear
12:15 PM 42.8 °F 35.8 °F 26.6 °F 53% 30.03 in 10.0 mi WNW 13.8 mph - N/A   Clear
12:35 PM 44.6 °F 38.4 °F 26.6 °F 49% 30.02 in 10.0 mi West 12.7 mph - N/A   Clear
12:55 PM 46.4 °F 40.1 °F 26.6 °F 46% 30.01 in 10.0 mi West 15.0 mph - N/A   Clear
1:15 PM 46.4 °F 40.4 °F 26.6 °F 46% 30.01 in 10.0 mi West 13.8 mph - N/A   Clear
1:35 PM 46.4 °F 41.5 °F 28.4 °F 50% 30.00 in 10.0 mi West 10.4 mph - N/A   Clear
1:55 PM 48.2 °F - 26.6 °F 43% 29.99 in 10.0 mi West 13.8 mph - N/A   Clear
2:15 PM 48.2 °F - 28.4 °F 46% 29.99 in 10.0 mi West 11.5 mph - N/A   Clear
2:35 PM 48.2 °F - 26.6 °F 43% 29.99 in 10.0 mi West 12.7 mph - N/A   Clear
2:55 PM 50.0 °F - 28.4 °F 43% 30.00 in 10.0 mi West 12.7 mph - N/A   Clear
3:15 PM 50.0 °F - 28.4 °F 43% 30.01 in 10.0 mi West 12.7 mph - N/A   Clear
3:35 PM 50.0 °F - 28.4 °F 43% 30.00 in 10.0 mi West 11.5 mph - N/A   Clear
3:55 PM 48.2 °F - 28.4 °F 46% 30.01 in 10.0 mi WSW 8.1 mph - N/A   Clear
4:15 PM 48.2 °F - 28.4 °F 46% 30.00 in 10.0 mi WSW 6.9 mph - N/A   Clear
4:35 PM 46.4 °F 41.9 °F 28.4 °F 50% 30.01 in 10.0 mi WSW 9.2 mph - N/A   Clear
4:55 PM 44.6 °F 40.2 °F 28.4 °F 53% 30.01 in 10.0 mi WSW 8.1 mph - N/A   Clear
5:15 PM 41.0 °F 36.4 °F 28.4 °F 61% 30.01 in 10.0 mi WSW 6.9 mph - N/A   Clear
5:35 PM 39.2 °F 34.2 °F 26.6 °F 61% 30.01 in 10.0 mi SW 6.9 mph - N/A   Clear
5:55 PM 39.2 °F 33.6 °F 28.4 °F 65% 30.01 in 10.0 mi SW 8.1 mph - N/A   Clear
6:15 PM 39.2 °F 35.0 °F 26.6 °F 61% 30.02 in 10.0 mi West 5.8 mph - N/A   Clear
6:35 PM 35.6 °F 30.7 °F 26.6 °F 70% 30.03 in 10.0 mi WSW 5.8 mph - N/A   Clear
6:55 PM 33.8 °F 29.6 °F 24.8 °F 70% 30.03 in 10.0 mi WSW 4.6 mph - N/A   Clear
7:15 PM 35.6 °F 29.2 °F 26.6 °F 70% 30.04 in 10.0 mi WSW 8.1 mph - N/A   Clear
7:35 PM 35.6 °F 29.9 °F 26.6 °F 70% 30.03 in 10.0 mi SW 6.9 mph - N/A   Clear
7:55 PM 35.6 °F 31.7 °F 26.6 °F 70% 30.04 in 10.0 mi WSW 4.6 mph - N/A   Clear
8:15 PM 33.8 °F 28.6 °F 26.6 °F 75% 30.04 in 10.0 mi WSW 5.8 mph - N/A   Clear
8:35 PM 33.8 °F 29.6 °F 24.8 °F 70% 30.04 in 10.0 mi SW 4.6 mph - N/A   Clear
8:55 PM 35.6 °F 31.7 °F 26.6 °F 70% 30.03 in 10.0 mi SW 4.6 mph - N/A   Clear
9:15 PM 35.6 °F - 24.8 °F 65% 30.03 in 10.0 mi Calm Calm - N/A   Clear
9:35 PM 35.6 °F 31.7 °F 24.8 °F 65% 30.02 in 10.0 mi SW 4.6 mph - N/A   Clear
9:55 PM 33.8 °F 29.6 °F 24.8 °F 70% 30.02 in 10.0 mi SW 4.6 mph - N/A   Clear
10:15 PM 32.0 °F 26.4 °F 24.8 °F 75% 30.01 in 10.0 mi SW 5.8 mph - N/A   Clear
10:35 PM 33.8 °F - 24.8 °F 70% 30.01 in 10.0 mi Calm Calm - N/A   Clear
10:55 PM 30.2 °F - 24.8 °F 80% 30.00 in 10.0 mi Calm Calm - N/A   Clear
11:15 PM 30.2 °F - 24.8 °F 80% 30.00 in 10.0 mi Calm Calm - N/A   Clear
11:35 PM 30.2 °F - 24.8 °F 80% 29.99 in 10.0 mi Calm Calm - N/A   Clear
11:55 PM 28.4 °F - 23.0 °F 80% 29.99 in 10.0 mi Calm Calm - N/A   Clear